H1 CPF 2 NER 2025 11 1 9 305 01 glonass131 H2 1301901 9131 39155 2025 11 1 0 0 0 2025 11 4 23 45 0 900 1 1 0 0 0 1 H9 10 0 60980 0.00000 0 -14356790.778 455952.387 21099160.589 10 0 60980 900.00000 0 -16360784.929 -1047193.952 19553756.371 10 0 60980 1800.00000 0 -18296851.613 -2275538.344 17628988.143 10 0 60980 2700.00000 0 -20098900.054 -3223734.109 15361876.840 10 0 60980 3600.00000 0 -21702932.941 -3899186.426 12796166.057 10 0 60980 4500.00000 0 -23049673.918 -4321508.743 9981496.051 10 0 60980 5400.00000 0 -24087024.773 -4521459.838 6972455.281 10 0 60980 6300.00000 0 -24772247.556 -4539404.795 3827526.490 10 0 60980 7200.00000 0 -25073777.456 -4423364.015 607947.340 10 0 60980 8100.00000 0 -24972587.208 -4226732.631 -2623492.007 10 0 60980 9000.00000 0 -24463042.395 -4005767.707 -5803689.825 10 0 60980 9900.00000 0 -23553208.715 -3816951.380 -8870486.249 10 0 60980 10800.00000 0 -22264595.861 -3714344.234 -11763902.439 10 0 60980 11700.00000 0 -20631347.241 -3747044.093 -14427338.698 10 0 60980 12600.00000 0 -18698909.043 -3956861.220 -16808705.478 10 0 60980 13500.00000 0 -16522235.015 -4376311.579 -18861462.772 10 0 60980 14400.00000 0 -14163603.577 -5027015.867 -20545545.603 10 0 60980 15300.00000 0 -11690140.776 -5918574.166 -21828156.067 10 0 60980 16200.00000 0 -9171155.044 -7047965.070 -22684405.706 10 0 60980 17100.00000 0 -6675397.470 -8399495.135 -23097795.623 10 0 60980 18000.00000 0 -4268363.947 -9945300.416 -23060525.491 10 0 60980 18900.00000 0 -2009753.005 -11646377.975 -22573626.600 10 0 60980 19800.00000 0 48814.334 -13454102.499 -21646917.877 10 0 60980 20700.00000 0 1865718.223 -15312162.578 -20298787.656 10 0 60980 21600.00000 0 3410828.695 -17158833.656 -18555807.424 10 0 60980 22500.00000 0 4666499.921 -18929490.890 -16452187.156 10 0 60980 23400.00000 0 5628031.862 -20559255.539 -14029084.753 10 0 60980 24300.00000 0 6303583.854 -21985663.591 -11333784.783 10 0 60980 25200.00000 0 6713547.720 -23151245.093 -8418763.894 10 0 60980 26100.00000 0 6889410.487 -24005907.053 -5340662.182 10 0 60980 27000.00000 0 6872157.745 -24509021.647 -2159181.111 10 0 60980 27900.00000 0 6710287.344 -24631134.226 1064070.422 10 0 60980 28800.00000 0 6457518.633 -24355221.840 4266759.747 10 0 60980 29700.00000 0 6170294.448 -23677451.772 7387021.628 10 0 60980 30600.00000 0 5905180.804 -22607410.334 10364635.152 10 0 60980 31500.00000 0 5716272.872 -21167793.793 13142165.073 10 0 60980 32400.00000 0 5652714.916 -19393575.133 15666047.450 10 0 60980 33300.00000 0 5756436.785 -17330681.385 17887600.684 10 0 60980 34200.00000 0 6060200.393 -15034235.769 19763944.524 10 0 60980 35100.00000 0 6586036.906 -12566436.184 21258811.325 10 0 60980 36000.00000 0 7344139.478 -9994155.869 22343235.623 10 0 60980 36900.00000 0 8332258.074 -7386363.210 22996109.991 10 0 60980 37800.00000 0 9535622.754 -4811464.775 23204597.142 10 0 60980 38700.00000 0 10927400.617 -2334678.998 22964390.349 10 0 60980 39600.00000 0 12469670.007 -15547.018 22279816.435 10 0 60980 40500.00000 0 14114874.569 2094317.890 21163777.949 10 0 60980 41400.00000 0 15807699.887 3953149.889 19637533.605 10 0 60980 42300.00000 0 17487297.638 5530539.544 17730318.772 10 0 60980 43200.00000 0 19089767.101 6808468.815 15478810.604 10 0 60980 44100.00000 0 20550792.274 7781827.644 12926445.389 10 0 60980 45000.00000 0 21808325.091 8458388.899 10122598.868 10 0 60980 45900.00000 0 22805202.135 8858240.951 7121643.332 10 0 60980 46800.00000 0 23491583.697 9012700.106 3981898.400 10 0 60980 47700.00000 0 23827110.430 8962747.509 764495.307 10 0 60980 48600.00000 0 23782683.915 8757056.025 -2467822.944 10 0 60980 49500.00000 0 23341792.838 8449690.835 -5651941.206 10 0 60980 50400.00000 0 22501325.600 8097582.319 -8725625.542 10 0 60980 51300.00000 0 21271832.170 7757880.316 -11628763.650 10 0 60980 52200.00000 0 19677221.894 7485304.558 -14304565.533 10 0 60980 53100.00000 0 17753908.590 7329606.628 -16700698.318 10 0 60980 54000.00000 0 15549438.502 7333254.049 -18770330.635 10 0 60980 54900.00000 0 13120659.263 7529437.440 -20473064.138 10 0 60980 55800.00000 0 10531508.038 7940487.336 -21775732.468 10 0 60980 56700.00000 0 7850513.354 8576769.164 -22653051.289 10 0 60980 57600.00000 0 5148117.142 9436103.766 -23088106.555 10 0 60980 58500.00000 0 2493930.853 10503737.728 -23072672.034 10 0 60980 59400.00000 0 -45958.384 11752863.887 -22607350.971 10 0 60980 60300.00000 0 -2411518.536 13145668.578 -21701540.712 10 0 60980 61200.00000 0 -4551034.971 14634859.680 -20373222.795 10 0 60980 62100.00000 0 -6423011.210 16165609.258 -18648584.671 10 0 60980 63000.00000 0 -7997631.013 17677827.314 -16561482.417 10 0 60980 63900.00000 0 -9257723.713 19108669.674 -14152756.889 10 0 60980 64800.00000 0 -10199196.100 20395173.764 -11469418.343 10 0 60980 65700.00000 0 -10830916.705 21476911.342 -8563716.838 10 0 60980 66600.00000 0 -11174061.229 22298547.232 -5492117.589 10 0 60980 67500.00000 0 -11260950.220 22812197.717 -2314201.846 10 0 60980 68400.00000 0 -11133430.809 22979491.215 908485.154 10 0 60980 69300.00000 0 -10840872.758 22773246.723 4113617.024 10 0 60980 70200.00000 0 -10437864.397 22178701.692 7239277.672 10 0 60980 71100.00000 0 -9981705.750 21194239.818 10225139.435 10 0 60980 72000.00000 0 -9529803.792 19831589.809 13013606.664 10 0 60980 72900.00000 0 -9137078.182 18115487.747 15550904.503 10 0 60980 73800.00000 0 -8853484.844 16082817.324 17788093.922 10 0 60980 74700.00000 0 -8721759.580 13781263.135 19681995.496 10 0 60980 75600.00000 0 -8775474.720 11267531.627 21196006.145 10 0 60980 76500.00000 0 -9037489.028 8605211.400 22300794.803 10 0 60980 77400.00000 0 -9518855.258 5862359.011 22974864.893 10 0 60980 78300.00000 0 -10218231.351 3108907.325 23204973.493 10 0 60980 79200.00000 0 -11121821.094 414000.775 22986399.148 10 0 60980 80100.00000 0 -12203848.787 -2156634.813 22323052.504 10 0 60980 81000.00000 0 -13427550.771 -4543181.087 21227426.216 10 0 60980 81900.00000 0 -14746645.536 -6693973.057 19720383.159 10 0 60980 82800.00000 0 -16107224.152 -8567409.399 17830784.523 10 0 60980 83700.00000 0 -17449984.855 -10133447.610 15594962.305 10 0 60980 84600.00000 0 -18712720.570 -11374620.794 13056043.596 10 0 60980 85500.00000 0 -19832956.501 -12286532.101 10263137.261 10 0 60981 0.00000 0 -20750627.382 -12877804.319 7270396.952 10 0 60981 900.00000 0 -21410681.557 -13169485.164 4135975.566 10 0 60981 1800.00000 0 -21765499.298 -13193931.047 920894.905 10 0 60981 2700.00000 0 -21777022.467 -12993216.470 -2312152.630 10 0 60981 3600.00000 0 -21418501.177 -12617135.172 -5500041.986 10 0 60981 4500.00000 0 -20675780.854 -12120878.597 -8580468.713 10 0 60981 5400.00000 0 -19548071.983 -11562491.426 -11493190.571 10 0 60981 6300.00000 0 -18048167.221 -11000214.180 -14181230.681 10 0 60981 7200.00000 0 -16202094.663 -10489828.248 -16592016.064 10 0 60981 8100.00000 0 -14048220.687 -10082118.717 -18678426.893 10 0 60981 9000.00000 0 -11635839.881 -9820565.280 -20399733.920 10 0 60981 9900.00000 0 -9023311.919 -9739361.335 -21722404.270 10 0 60981 10800.00000 0 -6275824.862 -9861846.760 -22620759.016 10 0 60981 11700.00000 0 -3462880.194 -10199421.498 -23077469.591 10 0 60981 12600.00000 0 -655606.577 -10750985.826 -23083883.802 10 0 60981 13500.00000 0 2075983.928 -11502930.127 -22640176.180 10 0 60981 14400.00000 0 4665681.738 -12429673.068 -21755321.253 10 0 60981 15300.00000 0 7053595.410 -13494723.537 -20446892.089 10 0 60981 16200.00000 0 9188392.876 -14652219.373 -18740690.044 10 0 60981 17100.00000 0 11029176.409 -15848875.930 -16670214.945 10 0 60981 18000.00000 0 12546915.524 -17026260.532 -14275988.019 10 0 60981 18900.00000 0 13725381.192 -18123295.658 -11604742.459 10 0 60981 19800.00000 0 14561546.013 -19078884.727 -8708498.850 10 0 60981 20700.00000 0 15065437.444 -19834549.895 -5643544.581 10 0 60981 21600.00000 0 15259453.995 -20336971.470 -2469337.731 10 0 60981 22500.00000 0 15177176.438 -20540323.373 752643.018 10 0 60981 23400.00000 0 14861726.572 -20408308.091 3960080.334 10 0 60981 24300.00000 0 14363744.364 -19915807.520 7091009.840 10 0 60981 25200.00000 0 13739069.316 -19050082.287 10084999.471 10 0 60981 26100.00000 0 13046223.500 -17811470.856 12884295.229 10 0 60981 27000.00000 0 12343801.125 -16213560.251 15434913.088 10 0 60981 27900.00000 0 11687872.762 -14282821.635 17687658.021 10 0 60981 28800.00000 0 11129511.327 -12057725.556 19599052.553 10 0 60981 29700.00000 0 10712541.594 -9587372.436 21132158.979 10 0 60981 30600.00000 0 10471605.859 -6929693.207 22257281.139 10 0 60981 31500.00000 0 10430625.531 -4149292.144 22952533.534 10 0 60981 32400.00000 0 10601722.559 -1315018.250 23204267.564 10 0 60981 33300.00000 0 10984646.185 1502637.424 23007346.770 10 0 60981 34200.00000 0 11566730.272 4234213.767 22365265.109 10 0 60981 35100.00000 0 12323385.048 6813912.923 21290104.651 10 0 60981 36000.00000 0 13219105.318 9182087.778 19802331.557 10 0 60981 36900.00000 0 14208955.940 11287481.554 17930431.815 10 0 60981 37800.00000 0 15240475.228 13089126.753 15710391.083 10 0 60981 38700.00000 0 16255919.015 14557823.798 13185025.918 10 0 60981 39600.00000 0 17194753.024 15677136.395 10403176.802 10 0 60981 40500.00000 0 17996289.617 16443860.202 7418776.510 10 0 60981 41400.00000 0 18602357.815 16867943.211 4289810.421 10 0 60981 42300.00000 0 18959892.725 16971859.332 1077188.322 10 0 60981 43200.00000 0 19023332.925 16789460.140 -2156450.183 10 0 60981 44100.00000 0 18756721.551 16364352.492 -5347972.436 10 0 60981 45000.00000 0 18135418.940 15747870.619 -8435005.805 10 0 60981 45900.00000 0 17147350.924 14996729.428 -11357180.416 10 0 60981 46800.00000 0 15793736.853 14170460.077 -14057334.731 10 0 60981 47700.00000 0 14089263.947 13328738.755 -16482657.763 10 0 60981 48600.00000 0 12061698.782 12528724.490 -18585743.185 10 0 60981 49500.00000 0 9750951.307 11822521.360 -20325532.662 10 0 60981 50400.00000 0 7207630.743 11254874.968 -21668128.457 10 0 60981 51300.00000 0 4491154.720 10861202.410 -22587458.557 10 0 60981 52200.00000 0 1667492.202 10666040.077 -23065781.171 10 0 60981 53100.00000 0 -1193363.744 10681975.041 -23094019.195 10 0 60981 54000.00000 0 -4020086.113 10909104.431 -22671919.166 10 0 60981 54900.00000 0 -6742753.591 11335044.101 -21808033.130 10 0 60981 55800.00000 0 -9295524.637 11935484.144 -20519525.561 10 0 60981 56700.00000 0 -11619134.674 12675265.369 -18831811.129 10 0 60981 57600.00000 0 -13663113.274 13509928.809 -16778032.388 10 0 60981 58500.00000 0 -15387630.708 14387670.560 -14398389.506 10 0 60981 59400.00000 0 -16764899.476 15251617.585 -11739336.868 10 0 60981 60300.00000 0 -17780075.553 16042327.159 -8852663.615 10 0 60981 61200.00000 0 -18431625.271 16700403.928 -5794477.170 10 0 60981 62100.00000 0 -18731146.194 17169124.333 -2624110.206 10 0 60981 63000.00000 0 -18702652.961 17396958.553 597027.452 10 0 60981 63900.00000 0 -18381361.026 17339885.073 3806629.877 10 0 60981 64800.00000 0 -17812021.546 16963402.109 6942686.812 10 0 60981 65700.00000 0 -17046878.709 16244153.122 9944664.214 10 0 60981 66600.00000 0 -16143335.657 15171099.815 12754652.196 10 0 60981 67500.00000 0 -15161426.503 13746194.677 15318460.032 10 0 60981 68400.00000 0 -14161199.250 11984525.588 17586639.131 10 0 60981 69300.00000 0 -13200117.566 9913926.289 19515416.316 10 0 60981 70200.00000 0 -12330588.174 7574068.008 21067521.473 10 0 60981 71100.00000 0 -11597715.333 5015068.209 22212895.378 10 0 60981 72000.00000 0 -11037374.629 2295671.749 22929265.387 10 0 60981 72900.00000 0 -10674685.448 -518923.149 23202578.707 10 0 60981 73800.00000 0 -10522945.579 -3359507.392 23027285.002 10 0 60981 74700.00000 0 -10583072.966 -6155474.071 22406462.283 10 0 60981 75600.00000 0 -10843579.211 -8837496.894 21351782.346 10 0 60981 76500.00000 0 -11281077.989 -11340165.433 19883314.497 10 0 60981 77400.00000 0 -11861309.582 -13604469.511 18029168.909 10 0 60981 78300.00000 0 -12540641.287 -15580030.259 15824983.837 10 0 60981 79200.00000 0 -13267983.344 -17226984.853 13313263.789 10 0 60981 80100.00000 0 -13987041.916 -18517445.233 10542578.959 10 0 60981 81000.00000 0 -14638815.638 -19436468.224 7566639.270 10 0 60981 81900.00000 0 -15164230.906 -19982494.310 4443259.502 10 0 60981 82800.00000 0 -15506803.943 -20167234.535 1233234.906 10 0 60981 83700.00000 0 -15615215.470 -20015008.420 -2000850.690 10 0 60981 84600.00000 0 -15445686.508 -19561559.493 -5195860.168 10 0 60981 85500.00000 0 -14964051.577 -18852397.873 -8289355.983 10 0 60982 0.00000 0 -14147438.171 -17940740.363 -11220843.724 10 0 60982 900.00000 0 -12985477.516 -16885135.814 -13932981.087 10 0 60982 1800.00000 0 -11480993.538 -15746879.405 -16372722.094 10 0 60982 2700.00000 0 -9650137.137 -14587325.958 -18492377.010 10 0 60982 3600.00000 0 -7521959.502 -13465219.705 -20250561.192 10 0 60982 4500.00000 0 -5137441.429 -12434155.407 -21613014.374 10 0 60982 5400.00000 0 -2548019.645 -11540280.125 -22553273.243 10 0 60982 6300.00000 0 186327.154 -10820334.013 -23053183.956 10 0 60982 7200.00000 0 2999351.046 -10300113.229 -23103245.029 10 0 60982 8100.00000 0 5821069.849 -9993419.292 -22702774.920 10 0 60982 9000.00000 0 8580457.046 -9901537.800 -21859902.519 10 0 60982 9900.00000 0 11208173.363 -10013266.357 -20591382.522 10 0 60982 10800.00000 0 13639225.725 -10305487.896 -18922241.270 10 0 60982 11700.00000 0 15815443.085 -10744262.334 -16885261.969 10 0 60982 12600.00000 0 17687667.074 -11286387.674 -14520321.289 10 0 60982 13500.00000 0 19217568.128 -11881362.154 -11873592.021 10 0 60982 14400.00000 0 20379013.993 -12473662.667 -8996628.772 10 0 60982 15300.00000 0 21158936.645 -13005241.953 -5945355.685 10 0 60982 16200.00000 0 21557664.837 -13418138.653 -2778976.568 10 0 60982 17100.00000 0 21588711.824 -13657090.300 441171.116 10 0 60982 18000.00000 0 21278030.213 -13672039.919 3652796.257 10 0 60982 18900.00000 0 20662767.753 -13420431.965 6793845.928 10 0 60982 19800.00000 0 19789577.948 -12869202.604 9803687.017 10 0 60982 20700.00000 0 18712557.184 -11996382.272 12624256.273 10 0 60982 21600.00000 0 17490894.798 -10792244.674 15201158.361 10 0 60982 22500.00000 0 16186333.583 -9259954.925 17484692.771 10 0 60982 23400.00000 0 14860545.502 -7415689.969 19430791.840 10 0 60982 24300.00000 0 13572530.328 -5288225.582 21001853.846 10 0 60982 25200.00000 0 12376143.726 -2918005.685 22167456.910 10 0 60982 26100.00000 0 11317855.960 -355730.406 22904941.312 10 0 60982 27000.00000 0 10434833.097 2339481.432 23199849.796 10 0 60982 27900.00000 0 9753419.724 5102282.535 23046217.582 10 0 60982 28800.00000 0 9288086.244 7863552.751 22446705.884 10 0 60982 29700.00000 0 9040885.235 10553021.634 21412575.122 10 0 60982 30600.00000 0 9001440.926 13101952.097 19963496.414 10 0 60982 31500.00000 0 9147474.187 15445775.896 18127202.593 10 0 60982 32400.00000 0 9445843.359 17526572.696 15938982.801 10 0 60982 33300.00000 0 9854059.681 19295289.820 13441027.649 10 0 60982 34200.00000 0 10322215.780 20713609.364 10681635.038 10 0 60982 35100.00000 0 10795247.644 21755383.220 7714289.907 10 0 60982 36000.00000 0 11215435.469 22407573.791 4596634.182 10 0 60982 36900.00000 0 11525037.592 22670658.613 1389346.235 10 0 60982 37800.00000 0 11668944.923 22558479.614 -1845048.283 10 0 60982 38700.00000 0 11597241.389 22097541.499 -5043410.184 10 0 60982 39600.00000 0 11267559.053 21325787.688 -8143239.342 10 0 60982 40500.00000 0 10647124.817 20290905.125 -11083919.523 10 0 60982 41400.00000 0 9714408.509 19048230.131 -13807928.639 10 0 60982 42300.00000 0 8460299.320 17658345.164 -16261988.116 10 0 60982 43200.00000 0 6888758.051 16184470.058 -18398126.472 10 0 60982 44100.00000 0 5016915.506 14689760.316 -20174634.224 10 0 60982 45000.00000 0 2874611.711 13234628.945 -21556889.873 10 0 60982 45900.00000 0 503394.936 11874206.998 -22518039.906 10 0 60982 46800.00000 0 -2044977.001 10656051.402 -23039519.315 10 0 60982 47700.00000 0 -4710469.253 9618197.453 -23111402.848 10 0 60982 48600.00000 0 -7427054.011 8787637.770 -22732581.157 10 0 60982 49500.00000 0 -10125249.164 8179290.598 -21910759.850 10 0 60982 50400.00000 0 -12734804.222 7795498.895 -20662283.255 10 0 60982 51300.00000 0 -15187420.606 7626078.577 -19011788.328 10 0 60982 52200.00000 0 -17419392.658 7648910.771 -16991697.448 10 0 60982 53100.00000 0 -19374059.739 7831049.876 -14641561.934 10 0 60982 54000.00000 0 -21003968.511 8130297.606 -12007270.859 10 0 60982 54900.00000 0 -22272657.229 8497173.987 -9140142.013 10 0 60982 55800.00000 0 -23155990.209 8877200.079 -6095913.885 10 0 60982 56700.00000 0 -23642989.787 9213394.833 -2933659.022 10 0 60982 57600.00000 0 -23736134.190 9448880.230 285359.831 10 0 60982 58500.00000 0 -23451111.918 9529485.110 3498868.725 10 0 60982 59400.00000 0 -22816045.596 9406238.797 6644774.365 10 0 60982 60300.00000 0 -21870219.824 9037650.879 9662346.843 10 0 60982 61200.00000 0 -20662367.507 8391682.750 12493371.782 10 0 60982 62100.00000 0 -19248586.739 7447329.583 15083251.419 10 0 60982 63000.00000 0 -17689974.816 6195747.486 17382035.409 10 0 60982 63900.00000 0 -16050076.973 4640879.220 19345363.534 10 0 60982 64800.00000 0 -14392254.482 2799552.104 20935304.197 10 0 60982 65700.00000 0 -12777079.655 701042.939 22121074.347 10 0 60982 66600.00000 0 -11259864.106 -1613873.829 22879628.364 10 0 60982 67500.00000 0 -9888421.137 -4094357.831 23196105.397 10 0 60982 68400.00000 0 -8701153.879 -6681358.176 23064126.742 10 0 60982 69300.00000 0 -7725547.920 -9309819.041 22485936.999 10 0 60982 70200.00000 0 -6977131.083 -11911147.494 21472385.041 10 0 60982 71100.00000 0 -6458944.415 -14415844.355 20042743.281 10 0 60982 72000.00000 0 -6161547.829 -16756191.404 18224366.354 10 0 60982 72900.00000 0 -6063562.064 -18868884.943 16052193.100 10 0 60982 73800.00000 0 -6132726.375 -20697506.841 13568098.726 10 0 60982 74700.00000 0 -6327429.631 -22194729.647 10820107.063 10 0 60982 75600.00000 0 -6598652.172 -23324162.405 7861476.046 10 0 60982 76500.00000 0 -6892237.609 -24061757.918 4749672.533 10 0 60982 77400.00000 0 -7151398.938 -24396719.934 1545255.639 10 0 60982 78300.00000 0 -7319352.207 -24331869.587 -1689309.673 10 0 60982 79200.00000 0 -7341964.597 -23883453.300 -4890884.790 10 0 60982 80100.00000 0 -7170302.168 -23080398.454 -7996909.763 10 0 60982 81000.00000 0 -6762966.203 -21963047.198 -10946649.135 10 0 60982 81900.00000 0 -6088115.664 -20581421.682 -13682404.475 10 0 60982 82800.00000 0 -5125086.735 -18993094.755 -16150667.244 10 0 60982 83700.00000 0 -3865537.788 -17260757.504 -18303187.006 10 0 60982 84600.00000 0 -2314068.936 -15449588.343 -20097932.017 10 0 60982 85500.00000 0 -488288.302 -13624536.908 -21499921.787 10 0 60983 0.00000 0 1581678.399 -11847639.541 -22481914.360 10 0 60983 900.00000 0 3854215.545 -10175480.198 -23024935.060 10 0 60983 1800.00000 0 6277735.851 -8656907.064 -23118635.556 10 0 60983 2700.00000 0 8792628.012 -7331097.864 -22761478.941 10 0 60983 3600.00000 0 11333548.060 -6226056.777 -21960747.267 10 0 60983 4500.00000 0 13831958.223 -5357603.407 -20732373.737 10 0 60983 5400.00000 0 16218805.855 -4728893.905 -19100604.690 10 0 60983 6300.00000 0 18427229.930 -4330491.169 -17097499.983 10 0 60983 7200.00000 0 20395182.048 -4140977.695 -14762283.456 10 0 60983 8100.00000 0 22067853.257 -4128081.744 -12140557.904 10 0 60983 9000.00000 0 23399806.828 -4250266.115 -9283401.330 10 0 60983 9900.00000 0 24356729.947 -4458709.846 -6246363.277 10 0 60983 10800.00000 0 24916733.765 -4699597.234 -3088381.496 10 0 60983 11700.00000 0 25071150.300 -4916616.445 129359.656 10 0 60983 12600.00000 0 24824795.779 -5053561.951 3344607.020 10 0 60983 13500.00000 0 24195692.052 -5056931.471 6495230.415 10 0 60983 14400.00000 0 23214259.906 -4878409.002 9520406.338 10 0 60983 15300.00000 0 21922019.490 -4477130.785 12361772.105 10 0 60983 16200.00000 0 20369852.830 -3821640.460 14964529.908 10 0 60983 17100.00000 0 18615900.798 -2891452.628 17278481.495 10 0 60983 18000.00000 0 16723181.271 -1678160.227 19258975.558 10 0 60983 18900.00000 0 14757026.089 -186039.590 20867751.649 10 0 60983 19800.00000 0 12782441.329 1567872.644 22073666.165 10 0 60983 20700.00000 0 10861498.403 3554235.417 22853287.817 10 0 60983 21600.00000 0 9050862.102 5732375.243 23191352.006 10 0 60983 22500.00000 0 7399556.313 8051736.839 23081065.595 10 0 60983 23400.00000 0 5947058.896 10453755.561 22524255.692 10 0 60983 24300.00000 0 4721804.165 12874077.412 21531358.398 10 0 60983 25200.00000 0 3740155.370 15245037.911 20121245.871 10 0 60983 26100.00000 0 3005890.806 17498299.637 18320892.699 10 0 60983 27000.00000 0 2510226.398 19567540.962 16164885.327 10 0 60983 27900.00000 0 2232375.667 21391085.160 13694781.252 10 0 60983 28800.00000 0 2140625.525 22914360.316 10958327.772 10 0 60983 29700.00000 0 2193884.495 24092086.318 8008553.226 10 0 60983 30600.00000 0 2343639.464 24890095.576 4902746.728 10 0 60983 31500.00000 0 2536239.014 25286708.588 1701345.412 10 0 60983 32400.00000 0 2715406.520 25273603.801 -1533249.161 10 0 60983 33300.00000 0 2824875.453 24856142.410 -4737901.599 10 0 60983 34200.00000 0 2811033.118 24053132.025 -7849994.633 10 0 60983 35100.00000 0 2625457.971 22896037.489 -10808675.893 10 0 60983 36000.00000 0 2227239.692 21427671.242 -13556072.674 10 0 60983 36900.00000 0 1584980.279 19700418.593 -16038448.261 10 0 60983 37800.00000 0 678388.203 17774073.641 -18207274.798 10 0 60983 38700.00000 0 -500604.562 15713378.721 -20020199.557 10 0 60983 39600.00000 0 -1947251.919 13585373.048 -21441884.097 10 0 60983 40500.00000 0 -3643955.554 11456664.310 -22444698.954 10 0 60983 41400.00000 0 -5560781.413 9390739.813 -23009259.980 10 0 60983 42300.00000 0 -7656508.590 7445431.519 -23124796.231 10 0 60983 43200.00000 0 -9880165.595 5670641.969 -22789343.154 10 0 60983 44100.00000 0 -12172988.196 4106426.107 -22009758.747 10 0 60983 45000.00000 0 -14470715.238 2781508.140 -20801564.139 10 0 60983 45900.00000 0 -16706124.959 1712293.362 -19188613.653 10 0 60983 46800.00000 0 -18811704.669 902413.349 -17202602.800 10 0 60983 47700.00000 0 -20722341.607 342820.120 -14882425.751 10 0 60983 48600.00000 0 -22377922.670 12421.487 -12273396.565 10 0 60983 49500.00000 0 -23725735.146 -120772.769 -9426350.836 10 0 60983 50400.00000 0 -24722569.608 -98045.472 -6396646.452 10 0 60983 51300.00000 0 -25336439.094 32022.333 -3243083.656 10 0 60983 52200.00000 0 -25547845.131 215848.749 -26765.747 10 0 60983 53100.00000 0 -25350540.249 397353.535 3190077.529 10 0 60983 54000.00000 0 -24751757.641 520560.032 6345281.632 10 0 60983 54900.00000 0 -23771900.528 532187.506 9377931.902 10 0 60983 55800.00000 0 -22443705.846 384125.815 12229519.672 10 0 60983 56700.00000 0 -20810918.081 35689.794 14845049.256 10 0 60983 57600.00000 0 -18926528.637 -544439.888 17174076.448 10 0 60983 58500.00000 0 -16850653.405 -1376669.590 19171660.552 10 0 60983 59400.00000 0 -14648135.348 -2469403.377 20799213.654 10 0 60983 60300.00000 0 -12385969.757 -3818457.072 22025232.619 10 0 60983 61200.00000 0 -10130656.686 -5407001.030 22825901.120 10 0 60983 62100.00000 0 -7945587.974 -7206035.742 23185551.057 10 0 60983 63000.00000 0 -5888574.905 -9175383.020 23096974.721 10 0 60983 63900.00000 0 -4009617.236 -11265154.633 22561581.238 10 0 60983 64800.00000 0 -2349004.896 -13417640.822 21589393.122 10 0 60983 65700.00000 0 -935830.722 -15569543.643 20198881.170 10 0 60983 66600.00000 0 213023.639 -17654465.400 18416638.539 10 0 60983 67500.00000 0 1093385.432 -19605551.087 16276897.644 10 0 60983 68400.00000 0 1713749.829 -21358176.376 13820896.403 10 0 60983 69300.00000 0 2094700.215 -22852569.476 11096103.505 10 0 60983 70200.00000 0 2267812.266 -24036256.778 8155315.452 10 0 60983 71100.00000 0 2274086.409 -24866228.317 5055641.247 10 0 60983 72000.00000 0 2161973.799 -25310729.840 1857393.602 10 0 60983 72900.00000 0 1985079.042 -25350603.328 -1377091.810 10 0 60983 73800.00000 0 1799637.581 -24980116.504 -4584685.310 10 0 60983 74700.00000 0 1661876.189 -24207243.524 -7702714.802 10 0 60983 75600.00000 0 1625370.904 -23053382.689 -10670213.484 10 0 60983 76500.00000 0 1738517.364 -21552521.491 -13429136.806 10 0 60983 77400.00000 0 2042224.091 -19749883.548 -15925522.242 10 0 60983 78300.00000 0 2567929.685 -17700114.721 -18110566.734 10 0 60983 79200.00000 0 3336030.796 -15465085.898 -19941598.570 10 0 60983 80100.00000 0 4354789.665 -13111406.598 -21382923.067 10 0 60983 81000.00000 0 5619768.925 -10707755.917 -22406524.526 10 0 60983 81900.00000 0 7113818.205 -8322144.842 -22992610.436 10 0 60983 82800.00000 0 8807612.982 -6019226.390 -23129987.618 10 0 60983 83700.00000 0 10660722.180 -3857767.299 -22816263.919 10 0 60983 84600.00000 0 12623158.346 -1888387.234 -22057872.911 10 0 60983 85500.00000 0 14637343.715 -151659.344 -20869922.868 99